Location: Newark
(34.9471°N, 136.1778°E)
Time: 01:16:04
(UTC+00:00)

LilacSat-2 - Pass Details

Date: 21 February 2020
Orbit: 514 x 534 km, 97.5° (Epoch: 08 April)

Event Time Altitude Azimuth Distance (km) Brightness Sun altitude
Rises 09:06:53 0° 212° (SSW) 2,624 ? -5.7°
Reaches altitude 10° 09:10:16 10° 245° (WSW) 1,740 ? -6.4°
Maximum altitude 09:11:38 12° 267° (W) 1,636 ? -6.6°
Drops below altitude 10° 09:13:01 10° 289° (WNW) 1,743 ? -6.9°
Sets 09:16:25 0° 322° (NW) 2,634 ? -7.6°
